Flag for Faroe Islands Weather past 2 weeks in Tórshavn, Faroe Islands, Faroe Islands

Now
46 °F

Drizzle. Low clouds.


Feels Like: 44 °F
Forecast: 47 / 50 °F
Wind: 6 mph from Southeast

Location: Soervaag / Vagar


UV Index: 0 (Low)

Visibility: 4 mi


Pressure: 30.12 "Hg

Humidity: 100%

Dew point: 46 °F

Location of TórshavnLocation

Historic Weather in Tórshavn

°F

Tórshavn temperature yesterday

Maximum temperature yesterday: 54 °F (at 11:50 AM)
Minimum temperature yesterday: 45 °F (at 12:20 AM)
Average temperature yesterday: 48 °F

Past Weeks' High & Low Weather Summary

 TemperatureHumidityPressure
High54 °F (Apr 23, 11:50 AM)100% (Apr 11, 4:50 PM)30.24 "Hg (Apr 11, 4:50 PM)
Low34 °F (Apr 21, 2:50 AM)50% (Apr 19, 3:20 PM)28.91 "Hg (Apr 12, 11:50 AM)
Average43 °F80%29.86 "Hg
* Reported Apr 9 8:20 PM — Apr 24 8:20 PM, Tórshavn, Weather by CustomWeather, © 2014

Note: Actual official high and low records may vary slightly from our data, if they occured in-between our weather recording intervals... More about our weather records

Advertising

Historic Weather Conditions — Data for Previous 24 hours

 ConditionsComfort  
Time TempWeatherWind HumidityBarometerVisibility
8:20 PM
Apr 24
46 °FLight rain. Low clouds.8 mph100%30.12 "HgN/A
7:50 PM46 °FDrizzle. Low clouds.9 mph100%30.12 "Hg6 mi
7:20 PM48 °FDrizzle. Partly sunny.10 mph94%30.12 "HgN/A
6:50 PM48 °FDrizzle. Broken clouds.14 mph94%30.12 "HgN/A
6:20 PM48 °FDrizzle. Partly sunny.13 mph94%30.12 "HgN/A
5:50 PM48 °FLight rain. Partly sunny.15 mph94%30.09 "HgN/A
5:20 PM46 °FLight rain. Low clouds.12 mph100%30.09 "Hg6 mi
4:50 PM46 °FLight rain. Low clouds.15 mph100%30.09 "Hg5 mi
4:20 PM46 °FLight rain. Fog.17 mph100%30.09 "Hg2 mi
3:50 PM46 °FLight rain. Fog.21 mph100%30.09 "Hg2 mi
3:20 PM46 °FFog.20 mph100%30.09 "Hg3 mi
2:50 PM46 °FPartly sunny.21 mph100%30.09 "Hg4 mi
2:20 PM46 °FSprinkles. Fog.21 mph100%30.09 "Hg1 mi
1:50 PM46 °FFog.18 mph100%30.09 "Hg2 mi
1:20 PM46 °FFog.20 mph100%30.09 "Hg2 mi
12:50 PM46 °FSprinkles. Fog.20 mph100%30.09 "Hg2 mi
12:20 PM46 °FFog.20 mph100%30.09 "Hg1 mi
11:50 AM46 °FSprinkles. Fog.21 mph100%30.09 "Hg1 mi
11:20 AM46 °FFog.24 mph100%30.09 "Hg0 mi
10:50 AM46 °FFog.24 mph93%30.09 "Hg1 mi
10:20 AM46 °FFog.21 mph93%30.09 "Hg1 mi
9:50 AM46 °FFog.24 mph93%30.09 "Hg1 mi
9:20 AM46 °FSprinkles. Fog.21 mph93%30.09 "Hg2 mi
8:20 AM45 °FLight rain. Fog.16 mph100%30.09 "Hg1 mi
7:50 AM45 °FSprinkles. Fog.20 mph100%30.09 "Hg1 mi
7:20 AM45 °FSprinkles. Fog.17 mph100%30.07 "Hg1 mi
6:50 AM45 °FSprinkles. Fog.15 mph100%30.07 "Hg2 mi
6:20 AM46 °FLight rain. Fog.16 mph93%30.07 "Hg1 mi
5:50 AM46 °FFog.14 mph93%30.07 "Hg2 mi
5:20 AM46 °FSprinkles. Fog.16 mph93%30.07 "Hg1 mi
4:50 AM46 °FSprinkles. Fog.17 mph93%30.07 "Hg2 mi
4:20 AM46 °FFog.15 mph93%30.07 "Hg1 mi
3:50 AM45 °FFog.15 mph100%30.07 "Hg2 mi
3:20 AM45 °FFog.17 mph100%30.07 "Hg3 mi
2:50 AM45 °FSprinkles. Fog.18 mph100%30.04 "Hg2 mi
2:20 AM45 °FLow clouds.16 mph100%30.07 "Hg3 mi
1:50 AM45 °FFog.15 mph100%30.07 "Hg2 mi
1:20 AM45 °FSprinkles. Fog.15 mph100%30.07 "Hg1 mi
12:50 AM45 °FLight rain. Fog.18 mph100%30.07 "Hg1 mi
12:20 AM45 °FLow clouds.16 mph100%30.07 "Hg3 mi
11:50 PM
Apr 23
45 °FLow clouds.15 mph100%30.07 "Hg3 mi
11:20 PM45 °FLow clouds.16 mph100%30.04 "Hg3 mi
10:50 PM45 °FLow clouds.18 mph100%30.07 "Hg3 mi
10:20 PM45 °FFog.10 mph100%30.04 "Hg2 mi
9:50 PM46 °FLow clouds.16 mph93%30.04 "Hg3 mi
9:20 PM45 °FSprinkles. Fog.17 mph100%30.04 "Hg2 mi
Weather by CustomWeather, © 2014

See weather overview